星链-3299 (STARLINK-3299 )

导读 | 豆包AI

STARLINK-3299是美国SpaceX公司星链星座项目的一员,于北京时间2022年1月6日发射入轨,运行在近地低轨道。作为星链全球卫星互联网计划的组成部分,它旨在与其他卫星协同,为全球尤其是偏远地区提供低延迟、高带宽的宽带互联网接入服务,助力弥合数字鸿沟,同时该卫星也具备自主避撞能力,寿命末期会主动离轨再入大气层销毁。

基本信息
目录编号:
50831
目录名称:
STARLINK-3299
国际标识:
2022-001AE
轨道中心:
EARTH
卫星名称:
星链-3299
卫星全名:
星链-3299 (STARLINK-3299 )
卫星状态:
在轨 (已飞行1528 天)
发射日期:
2022-01-06 UTC
国别 :
美国 (US)
星等 :
--
轨道信息
数据来源 国际轨道数据
星历时间: 2026-03-14T05:38:20+0800
22小时前
查看轨道信息
半长轴: 6917.868km
偏心率: 0.00011
轨道倾角: 53.218°
近地点辐角 86.744°
升交点赤经 150.281°
平近点角 273.368°
近地点: 538.97km
远地点: 540.492km
周期: 95.437分钟
每日圈数: 15.088443
详细信息
固有亮度:
5
最大亮度:
2.5
卫星平台:
Starlink v1.5
覆盖范围:
全球
运营商:
太空探索技术公司
运营商所在国:
美国
制造商(研发单位):
太空探索技术公司
制造商所在国:
美国
使用方式:
暂无
卫星简介
星链(Starlink)计划是由太空探索技术公司(SpaceX)提出的一个巨型低轨卫星互联网星座项目,计划在2019年至2024年间在太空搭建由约1.2万颗卫星组成的“星链”网络,其中1584颗将部署在地球上空550千米处的近地轨道,并从2020年开始工作。该卫星仍在工作。
2D轨道图
3D轨道图
轨道高度分析图
轨道倾角分析图
轨道综合分析图
查看轨道综合分析图